Location: Shepherdstown, WV
(39.4326°N, 77.8042°W)
Time: 16:23:05
(UTC-04:00)

Tiros 1 despin weight - Pass Details

Date: 08 August 2021
Orbit: 593 x 641 km, 48.2° (Epoch: 18 September)

Event Time Altitude Azimuth Distance (km) Brightness Sun altitude
Rises 16:59:01 0° 301° (WNW) 2,941 ? 36.4°
Reaches altitude 10° 17:01:21 10° 303° (WNW) 2,032 ? 36.0°
Maximum altitude 17:06:03 76° 30° (NNE) 661 ? 35.1°
Drops below altitude 10° 17:10:42 10° 116° (ESE) 2,018 ? 34.2°
Sets 17:13:01 0° 118° (ESE) 2,920 ? 33.8°
